AFR9M LFMN-EDDM

Flight info

Callsign AFR9M
Flight time 0h 47m
Altitude 39000
Route BASIP8A BASIP DCT VALAV DCT BETOS UNABLE RNAV REQUEST RADAR VECTOR
Aircraft CONC/H-SDE2E3FGHIRYW/X

Departure

Time 2026-05-04 17:27
Airport Nice-Côte d'Azur Airport (LFMN)

Arrival

Time 2026-05-04 18:14
Airport Munich Airport (EDDM)
Time Latitude Longitude Altitude Speed Heading
2026-05-04 16:37 43.66608 7.21666 28 ft 0 kts 311°
2026-05-04 17:19 43.66593 7.21689 28 ft 2 kts 311°
2026-05-04 17:19 43.66573 7.21724 28 ft 2 kts 284°
2026-05-04 17:20 43.66577 7.21758 28 ft 0 kts 221°
2026-05-04 17:21 43.66547 7.21721 28 ft 7 kts 222°
2026-05-04 17:21 43.66439 7.21574 28 ft 15 kts 225°
2026-05-04 17:22 43.66362 7.21458 28 ft 18 kts 234°
2026-05-04 17:22 43.66269 7.21323 28 ft 21 kts 224°
2026-05-04 17:23 43.65889 7.20808 28 ft 30 kts 221°
2026-05-04 17:23 43.65734 7.20599 28 ft 32 kts 225°
2026-05-04 17:23 43.65433 7.20192 28 ft 23 kts 213°
2026-05-04 17:24 43.65303 7.20261 28 ft 22 kts 136°
2026-05-04 17:24 43.64930 7.20277 29 ft 26 kts 225°
2026-05-04 17:25 43.64815 7.20141 29 ft 18 kts 198°
2026-05-04 17:25 43.64724 7.20319 29 ft 7 kts 50°
2026-05-04 17:26 43.64734 7.20332 29 ft 0 kts 43°
2026-05-04 17:26 43.64969 7.20654 29 ft 103 kts 45°
2026-05-04 17:27 43.66857 7.23274 1466 ft 217 kts 50°
2026-05-04 17:27 43.68261 7.27750 4263 ft 324 kts 98°
2026-05-04 17:28 43.67074 7.34369 7197 ft 349 kts 89°
2026-05-04 17:29 43.72819 7.35381 9524 ft 414 kts 338°
2026-05-04 17:29 43.80647 7.38142 9516 ft 415 kts 42°
2026-05-04 17:30 43.87538 7.45207 11654 ft 430 kts 30°
2026-05-04 17:31 43.93715 7.47744 13856 ft 490 kts
2026-05-04 17:31 44.02924 7.54605 17451 ft 521 kts 34°
2026-05-04 17:32 44.08744 7.60807 20152 ft 540 kts 37°
2026-05-04 17:33 44.17932 7.70592 24316 ft 570 kts 37°
2026-05-04 17:33 44.21129 7.73983 25495 ft 585 kts 36°
2026-05-04 17:34 44.31172 7.84633 29276 ft 623 kts 35°
2026-05-04 17:34 44.34590 7.88260 30567 ft 628 kts 35°
2026-05-04 17:35 44.45180 7.99500 33661 ft 656 kts 35°
2026-05-04 17:35 44.52511 8.07290 34703 ft 667 kts 35°
2026-05-04 17:35 44.56231 8.11248 35205 ft 673 kts 35°
2026-05-04 17:36 44.59926 8.15182 35705 ft 679 kts 35°
2026-05-04 17:36 44.63698 8.19203 36220 ft 685 kts 35°
2026-05-04 17:36 44.67507 8.23266 36755 ft 690 kts 35°
2026-05-04 17:36 44.71350 8.27368 37282 ft 696 kts 35°
2026-05-04 17:37 44.75260 8.31544 37852 ft 717 kts 35°
2026-05-04 17:37 44.79300 8.35859 38425 ft 740 kts 35°
2026-05-04 17:37 44.83462 8.40308 38926 ft 763 kts 35°
2026-05-04 17:37 44.87766 8.44911 39112 ft 792 kts 35°
2026-05-04 17:38 44.92242 8.49701 39101 ft 823 kts 36°
2026-05-04 17:38 45.01326 8.59457 39047 ft 826 kts 36°
2026-05-04 17:39 45.15041 8.74262 39053 ft 826 kts 36°
2026-05-04 17:39 45.24194 8.84185 39046 ft 828 kts 36°
2026-05-04 17:40 45.33271 8.94059 38992 ft 827 kts 36°
2026-05-04 17:40 45.42391 9.04015 39010 ft 826 kts 36°
2026-05-04 17:41 45.51503 9.13993 39004 ft 826 kts 36°
2026-05-04 17:41 45.60620 9.24011 39002 ft 826 kts 36°
2026-05-04 17:42 45.69642 9.33958 39009 ft 825 kts 36°
2026-05-04 17:42 45.78724 9.44006 39025 ft 825 kts 36°
2026-05-04 17:43 45.87781 9.54062 39064 ft 822 kts 36°
2026-05-04 17:43 45.96828 9.64143 39047 ft 821 kts 36°
2026-05-04 17:44 46.05859 9.74244 39079 ft 823 kts 37°
2026-05-04 17:44 46.14836 9.84317 39075 ft 825 kts 37°
2026-05-04 17:45 46.19311 9.89350 39073 ft 808 kts 37°
2026-05-04 17:45 46.23753 9.94356 39104 ft 812 kts 37°
2026-05-04 17:45 46.32656 10.04410 39086 ft 812 kts 37°
2026-05-04 17:46 46.41493 10.14422 39081 ft 814 kts 37°
2026-05-04 17:46 46.50392 10.24535 39092 ft 813 kts 37°
2026-05-04 17:47 46.59302 10.34683 39069 ft 815 kts 37°
2026-05-04 17:47 46.68906 10.43190 38882 ft 808 kts 20°
2026-05-04 17:48 46.79340 10.49085 38994 ft 812 kts 21°
2026-05-04 17:48 46.89576 10.55933 38402 ft 811 kts 23°
2026-05-04 17:49 46.94613 10.59311 36834 ft 780 kts 23°
2026-05-04 17:49 46.99455 10.62522 35526 ft 747 kts 23°
2026-05-04 17:49 47.04081 10.65581 34518 ft 712 kts 23°
2026-05-04 17:49 47.08475 10.68486 33645 ft 674 kts 23°
2026-05-04 17:50 47.12652 10.71252 32413 ft 643 kts 24°
2026-05-04 17:50 47.16634 10.73893 31344 ft 612 kts 24°
2026-05-04 17:50 47.20388 10.76386 29919 ft 588 kts 24°
2026-05-04 17:50 47.24061 10.78825 28263 ft 574 kts 23°
2026-05-04 17:51 47.27680 10.81206 26691 ft 563 kts 23°
2026-05-04 17:51 47.31225 10.83555 25179 ft 554 kts 23°
2026-05-04 17:51 47.34711 10.85879 23780 ft 547 kts 23°
2026-05-04 17:51 47.38159 10.88182 22202 ft 540 kts 23°
2026-05-04 17:52 47.41587 10.90363 20666 ft 534 kts 20°
2026-05-04 17:52 47.45089 10.92063 19203 ft 528 kts 12°
2026-05-04 17:52 47.48631 10.92786 18194 ft 513 kts
2026-05-04 17:52 47.52082 10.93725 17282 ft 500 kts 20°
2026-05-04 17:53 47.55092 10.96100 16734 ft 480 kts 38°
2026-05-04 17:53 47.57459 10.99294 16966 ft 445 kts 47°
2026-05-04 17:53 47.59428 11.02670 16916 ft 421 kts 51°
2026-05-04 17:53 47.61321 11.05836 16884 ft 400 kts 43°
2026-05-04 17:54 47.63519 11.08153 16868 ft 379 kts 19°
2026-05-04 17:54 47.66011 11.08832 16854 ft 356 kts
2026-05-04 17:54 47.68401 11.09434 16835 ft 344 kts 16°
2026-05-04 17:54 47.70535 11.11058 16465 ft 349 kts 36°
2026-05-04 17:55 47.72534 11.13077 16156 ft 346 kts 30°
2026-05-04 17:55 47.74624 11.14838 15793 ft 345 kts 28°
2026-05-04 17:55 47.76684 11.16548 15502 ft 341 kts 28°
2026-05-04 17:55 47.78741 11.18254 15352 ft 337 kts 28°
2026-05-04 17:56 47.80783 11.19959 15200 ft 337 kts 28°
2026-05-04 17:56 47.82833 11.21659 15047 ft 337 kts 28°
2026-05-04 17:56 47.84875 11.23344 14962 ft 335 kts 28°
2026-05-04 17:56 47.86953 11.24972 14958 ft 338 kts 26°
2026-05-04 17:57 47.89051 11.26513 14956 ft 337 kts 24°
2026-05-04 17:57 47.91236 11.27871 14916 ft 341 kts 22°
2026-05-04 17:57 47.93391 11.29308 14887 ft 339 kts 24°
2026-05-04 17:57 47.95526 11.30801 14880 ft 339 kts 25°
2026-05-04 17:58 47.97655 11.32318 14878 ft 339 kts 25°
2026-05-04 17:58 47.99751 11.33821 14878 ft 338 kts 25°
2026-05-04 17:58 48.01877 11.35351 14735 ft 342 kts 25°
2026-05-04 17:58 48.04027 11.36898 14347 ft 343 kts 25°
2026-05-04 17:59 48.06170 11.38438 13964 ft 341 kts 25°
2026-05-04 17:59 48.08307 11.39969 13573 ft 339 kts 25°
2026-05-04 17:59 48.12609 11.43033 12315 ft 348 kts 25°
2026-05-04 18:00 48.14772 11.44718 11639 ft 354 kts 38°
2026-05-04 18:00 48.16402 11.47461 10990 ft 356 kts 67°
2026-05-04 18:00 48.17143 11.50908 10825 ft 340 kts 81°
2026-05-04 18:00 48.17576 11.54245 10857 ft 322 kts 83°
2026-05-04 18:01 48.17938 11.57495 10887 ft 315 kts 84°
2026-05-04 18:01 48.18274 11.60750 10884 ft 317 kts 85°
2026-05-04 18:01 48.18586 11.63972 10888 ft 309 kts 85°
2026-05-04 18:02 48.19173 11.70377 10890 ft 311 kts 85°
2026-05-04 18:02 48.19459 11.73581 10889 ft 310 kts 85°
2026-05-04 18:02 48.19744 11.76779 10891 ft 309 kts 85°
2026-05-04 18:02 48.20028 11.79978 10890 ft 310 kts 85°
2026-05-04 18:03 48.20309 11.83134 10893 ft 310 kts 85°
2026-05-04 18:03 48.20593 11.86327 10889 ft 309 kts 85°
2026-05-04 18:03 48.20877 11.89522 10887 ft 309 kts 85°
2026-05-04 18:03 48.21160 11.92712 10911 ft 308 kts 85°
2026-05-04 18:04 48.21444 11.95903 10933 ft 310 kts 85°
2026-05-04 18:04 48.21729 11.99117 10745 ft 313 kts 85°
2026-05-04 18:04 48.22295 12.05582 9969 ft 311 kts 85°
2026-05-04 18:05 48.22574 12.08792 9539 ft 309 kts 85°
2026-05-04 18:05 48.22828 12.11973 9164 ft 304 kts 87°
2026-05-04 18:05 48.23016 12.15066 8800 ft 300 kts 87°
2026-05-04 18:05 48.23210 12.18176 8408 ft 298 kts 86°
2026-05-04 18:06 48.23650 12.24307 7610 ft 293 kts 85°
2026-05-04 18:06 48.23878 12.27329 7206 ft 290 kts 85°
2026-05-04 18:06 48.24230 12.30284 6797 ft 288 kts 66°
2026-05-04 18:07 48.25440 12.32609 6473 ft 286 kts 32°
2026-05-04 18:07 48.27288 12.33563 6185 ft 284 kts
2026-05-04 18:07 48.29259 12.33583 5840 ft 282 kts 357°
2026-05-04 18:07 48.31214 12.33408 5469 ft 281 kts 355°
2026-05-04 18:08 48.33110 12.33163 5075 ft 273 kts 355°
2026-05-04 18:08 48.34920 12.32500 4678 ft 267 kts 327°
2026-05-04 18:08 48.36168 12.30552 4412 ft 256 kts 301°
2026-05-04 18:08 48.37010 12.28253 4176 ft 248 kts 296°
2026-05-04 18:09 48.38026 12.23475 3990 ft 243 kts 264°
2026-05-04 18:09 48.37610 12.18408 3978 ft 244 kts 261°
2026-05-04 18:10 48.37345 12.15886 3960 ft 244 kts 260°
2026-05-04 18:10 48.37070 12.13370 3943 ft 244 kts 261°
2026-05-04 18:10 48.36806 12.10891 3933 ft 242 kts 261°
2026-05-04 18:10 48.36554 12.08344 3936 ft 244 kts 262°
2026-05-04 18:11 48.36335 12.05859 3937 ft 242 kts 263°
2026-05-04 18:11 48.36141 12.03344 3935 ft 243 kts 264°
2026-05-04 18:11 48.35968 12.00815 3934 ft 243 kts 264°
2026-05-04 18:11 48.35807 11.98288 3884 ft 244 kts 265°
2026-05-04 18:12 48.35649 11.95737 3521 ft 243 kts 264°
2026-05-04 18:12 48.35476 11.93211 3198 ft 243 kts 264°
2026-05-04 18:12 48.35289 11.90696 2870 ft 240 kts 264°
2026-05-04 18:12 48.35097 11.88267 2532 ft 230 kts 264°
2026-05-04 18:13 48.34908 11.85919 2216 ft 221 kts 264°
2026-05-04 18:13 48.34723 11.83624 1924 ft 216 kts 264°
2026-05-04 18:13 48.34384 11.79270 1496 ft 194 kts 263°
2026-05-04 18:14 48.34262 11.77628 1481 ft 115 kts 263°
2026-05-04 18:14 48.34198 11.76798 1483 ft 48 kts 264°
2026-05-04 18:14 48.34223 11.76334 1481 ft 42 kts 290°
2026-05-04 18:15 48.34318 11.75999 1484 ft 4 kts 294°
2026-05-04 18:15 48.34318 11.75998 1484 ft 0 kts 294°
2026-05-04 18:16 48.34319 11.75995 1483 ft 1 kts 294°
2026-05-04 18:16 48.34333 11.75948 1485 ft 9 kts 294°
2026-05-04 18:17 48.34499 11.75831 1476 ft 14 kts 64°
2026-05-04 18:17 48.34517 11.75986 1489 ft 16 kts 83°
2026-05-04 18:17 48.34545 11.76364 1486 ft 20 kts 84°
2026-05-04 18:18 48.34556 11.76511 1487 ft 22 kts 83°
2026-05-04 18:18 48.34576 11.76742 1489 ft 23 kts 83°
2026-05-04 18:18 48.34595 11.76996 1480 ft 25 kts 84°
2026-05-04 18:18 48.34615 11.77267 1483 ft 27 kts 83°
2026-05-04 18:19 48.34658 11.77823 1486 ft 19 kts 80°
2026-05-04 18:19 48.34757 11.77882 1486 ft 17 kts 353°
2026-05-04 18:19 48.34844 11.77869 1488 ft 8 kts 355°
2026-05-04 18:20 48.34908 11.77859 1483 ft 11 kts 354°
2026-05-04 18:20 48.34998 11.77843 1484 ft 15 kts 353°
2026-05-04 18:20 48.35103 11.77825 1487 ft 15 kts 353°
2026-05-04 18:20 48.35199 11.77807 1481 ft 12 kts 353°
2026-05-04 18:21 48.35237 11.77818 1488 ft 2 kts 39°
2026-05-04 18:21 48.35247 11.77847 1483 ft 5 kts 65°
2026-05-04 18:21 48.35254 11.77904 1492 ft 5 kts 84°
2026-05-04 18:21 48.35256 11.77937 1492 ft 1 kts 84°
2026-05-04 18:22 48.35256 11.77941 1492 ft 1 kts 84°
2026-05-04 18:22 48.35256 11.77944 1492 ft 0 kts 84°